| time (UTC) | temp F | wind direction | speed MPH | gust MPH | rain 1hr in | rain 24hr in | rain mn in | humidity % | barometer mb |
| 20260905193016 | 87 | 0.0 | 14.0 | 0.00 | 0.00 | 0.00 | 72 | 1011.9 | |
| 20260905191515 | 87 | 0.0 | 16.0 | 0.00 | 0.00 | 0.00 | 72 | 1011.9 | |
| 20260905190014 | 87 | 0.0 | 15.0 | 0.00 | 0.00 | 0.00 | 73 | 1011.9 | |
| 20260905184513 | 88 | 0.0 | 14.0 | 0.00 | 0.00 | 0.00 | 73 | 1011.9 | |
| 20260905183009 | 87 | 0.0 | 11.0 | 0.00 | 0.00 | 0.00 | 75 | 1011.8 | |
| 20260905181508 | 86 | 0.0 | 14.0 | 0.00 | 0.00 | 0.00 | 77 | 1011.9 | |
| 20260905180009 | 86 | 0.0 | 12.0 | 0.00 | 0.00 | 0.00 | 79 | 1011.9 | |
| 20260905174505 | 86 | 0.0 | 8.0 | 0.00 | 0.00 | 0.00 | 79 | 1011.8 | |
| 20260905173005 | 86 | 0.0 | 9.0 | 0.00 | 0.00 | 0.00 | 80 | 1011.9 | |
| 20260905171502 | 85 | 0.0 | 8.0 | 0.00 | 0.00 | 0.00 | 82 | 1012.0 | |
| 20260905170002 | 85 | 0.0 | 8.0 | 0.00 | 0.00 | 0.00 | 84 | 1012.2 | |
| 20260905164600 | 85 | 0.0 | 9.0 | 0.00 | 0.00 | 0.00 | 83 | 1012.3 | |
| 20260905163059 | 85 | 0.0 | 10.0 | 0.00 | 0.00 | 0.00 | 84 | 1012.3 | |
| 20260905161604 | 85 | 0.0 | 8.0 | 0.00 | 0.00 | 0.00 | 84 | 1012.2 | |
| 20260905160058 | 85 | 0.0 | 9.0 | 0.00 | 0.00 | 0.00 | 85 | 1012.3 | |
| 20260905154613 | 85 | 0.0 | 7.0 | 0.00 | 0.00 | 0.00 | 85 | 1012.2 | |
| 20260905153053 | 84 | 0.0 | 7.0 | 0.00 | 0.00 | 0.00 | 86 | 1012.0 | |
| 20260905151600 | 84 | 0.0 | 8.0 | 0.00 | 0.00 | 0.00 | 85 | 1012.0 | |
| 20260905150049 | 84 | 0.0 | 10.0 | 0.00 | 0.00 | 0.00 | 87 | 1011.9 | |
| 20260905144546 | 83 | 0.0 | 7.0 | 0.00 | 0.00 | 0.00 | 91 | 1011.4 | |
| 20260905143042 | 81 | 0.0 | 4.0 | 0.00 | 0.00 | 0.00 | 95 | 1011.4 | |
| 20260905141538 | 80 | 0.0 | 5.0 | 0.00 | 0.00 | 0.00 | 96 | 1011.6 | |
| 20260905140036 | 79 | 0.0 | 5.0 | 0.00 | 0.00 | 0.00 | 97 | 1011.9 | |
| 20260905134536 | 79 | 0.0 | 3.0 | 0.00 | 0.00 | 0.00 | 97 | 1011.8 | |
| 20260905133032 | 79 | 0.0 | 3.0 | 0.00 | 0.00 | 0.00 | 97 | 1011.7 | |
| 20260905131528 | 78 | 0.0 | 0.0 | 0.00 | 0.00 | 0.00 | 97 | 1011.4 | |
| 20260905130026 | 77 | 0.0 | 0.0 | 0.00 | 0.00 | 0.00 | 98 | 1011.4 | |
| 20260905124526 | 76 | 0.0 | 0.0 | 0.00 | 0.00 | 0.00 | 97 | 1011.2 | |
| 20260905123022 | 76 | 0.0 | 6.0 | 0.00 | 0.00 | 0.00 | 97 | 1011.2 | |
| 20260905121525 | 75 | 0.0 | 2.0 | 0.00 | 0.00 | 0.00 | 97 | 1011.0 | |
| 20260905120026 | 75 | 0.0 | 0.0 | 0.00 | 0.00 | 0.00 | 97 | 1010.7 | |
| 20260905114520 | 74 | 0.0 | 0.0 | 0.00 | 0.00 | 0.00 | 97 | 1010.7 | |
| 20260905113020 | 74 | 0.0 | 0.0 | 0.00 | 0.00 | 0.00 | 97 | 1010.7 | |
| 20260905111521 | 74 | 0.0 | 0.0 | 0.00 | 0.00 | 0.00 | 97 | 1010.6 | |
| 20260905110020 | 75 | 0.0 | 0.0 | 0.00 | 0.00 | 0.00 | 97 | 1010.5 | |
| 20260905104519 | 74 | 0.0 | 1.0 | 0.00 | 0.00 | 0.00 | 96 | 1010.6 | |
| 20260905103018 | 74 | 0.0 | 1.0 | 0.00 | 0.00 | 0.00 | 96 | 1010.6 | |
| 20260905101522 | 75 | 0.0 | 1.0 | 0.00 | 0.00 | 0.00 | 96 | 1010.7 | |
| 20260905100018 | 75 | 0.0 | 3.0 | 0.00 | 0.00 | 0.00 | 96 | 1010.7 | |
| 20260905094515 | 75 | 0.0 | 2.0 | 0.00 | 0.00 | 0.00 | 96 | 1010.8 | |
| 20260905093013 | 75 | 0.0 | 0.0 | 0.00 | 0.00 | 0.00 | 96 | 1010.7 | |
| 20260905091514 | 75 | 0.0 | 0.0 | 0.00 | 0.00 | 0.00 | 96 | 1010.6 | |
| 20260905090015 | 75 | 0.0 | 0.0 | 0.00 | 0.00 | 0.00 | 96 | 1010.8 | |
| 20260905084513 | 75 | 0.0 | 0.0 | 0.00 | 0.00 | 0.00 | 96 | 1010.9 | |
| 20260905083010 | 75 | 0.0 | 0.0 | 0.00 | 0.00 | 0.00 | 96 | 1010.8 | |
| 20260905081519 | 76 | 0.0 | 0.0 | 0.00 | 0.00 | 0.00 | 95 | 1010.6 | |
| 20260905080015 | 76 | 0.0 | 0.0 | 0.00 | 0.00 | 0.00 | 96 | 1010.6 | |
| 20260905074509 | 77 | 0.0 | 3.0 | 0.00 | 0.00 | 0.00 | 96 | 1010.5 | |
| 20260905073009 | 77 | 0.0 | 5.0 | 0.00 | 0.00 | 0.00 | 96 | 1010.3 | |
| 20260905071507 | 77 | 0.0 | 5.0 | 0.00 | 0.00 | 0.00 | 96 | 1010.2 | |
| 20260905070013 | 77 | 0.0 | 6.0 | 0.00 | 0.00 | 0.00 | 96 | 1010.2 | |
| 20260905064505 | 75 | 0.0 | 5.0 | 0.00 | 0.00 | 0.00 | 95 | 1010.3 | |
| 20260905063002 | 76 | 0.0 | 0.0 | 0.00 | 0.00 | 0.00 | 95 | 1010.6 | |
| 20260905061502 | 76 | 0.0 | 0.0 | 0.00 | 0.00 | 0.00 | 95 | 1010.7 | |
| 20260905060100 | 76 | 0.0 | 0.0 | 0.00 | 0.00 | 0.00 | 94 | 1010.6 | |
| 20260905054602 | 77 | 0.0 | 0.0 | 0.00 | 0.00 | 0.00 | 94 | 1010.9 | |
| 20260905053056 | 77 | 0.0 | 0.0 | 0.00 | 0.00 | 0.00 | 94 | 1011.0 | |
| 20260905051553 | 77 | 0.0 | 3.0 | 0.00 | 0.00 | 0.00 | 94 | 1010.9 | |
| 20260905050051 | 77 | 0.0 | 0.0 | 0.00 | 0.00 | 0.00 | 94 | 1010.9 | |
| 20260905044550 | 77 | 0.0 | 0.0 | 0.00 | 0.00 | 0.00 | 94 | 1011.2 | |
| 20260905043049 | 78 | 0.0 | 0.0 | 0.00 | 0.00 | 0.00 | 94 | 1011.2 | |
| 20260905041555 | 78 | 0.0 | 0.0 | 0.00 | 0.00 | 0.00 | 93 | 1011.0 | |
| 20260905040052 | 78 | 0.0 | 0.0 | 0.00 | 0.00 | 0.00 | 93 | 1011.1 | |
| 20260905034548 | 78 | 0.0 | 0.0 | 0.00 | 0.00 | 0.00 | 93 | 1011.2 | |
| 20260905033052 | 79 | 0.0 | 0.0 | 0.00 | 0.00 | 0.00 | 93 | 1011.3 | |
| 20260905031550 | 79 | 0.0 | 1.0 | 0.00 | 0.00 | 0.00 | 92 | 1011.4 | |
| 20260905030048 | 80 | 0.0 | 0.0 | 0.00 | 0.00 | 0.00 | 92 | 1011.5 | |
| 20260905024545 | 80 | 0.0 | 0.0 | 0.00 | 0.00 | 0.00 | 92 | 1011.3 | |
| 20260905023045 | 80 | 0.0 | 0.0 | 0.00 | 0.00 | 0.00 | 91 | 1011.4 | |
| 20260905021545 | 80 | 0.0 | 0.0 | 0.00 | 0.00 | 0.00 | 90 | 1011.5 | |
| 20260905020048 | 81 | 0.0 | 0.0 | 0.00 | 0.00 | 0.00 | 90 | 1011.1 | |
| 20260905014545 | 81 | 0.0 | 0.0 | 0.00 | 0.00 | 0.00 | 88 | 1010.9 | |
| 20260905013043 | 82 | 0.0 | 0.0 | 0.00 | 0.00 | 0.00 | 88 | 1010.6 | |
| 20260905011542 | 83 | 0.0 | 2.0 | 0.00 | 0.00 | 0.00 | 87 | 1010.6 | |
| 20260905010046 | 84 | 0.0 | 2.0 | 0.00 | 0.00 | 0.00 | 86 | 1010.6 | |
| 20260905004542 | 85 | 0.0 | 0.0 | 0.00 | 0.00 | 0.00 | 83 | 1010.4 | |
| 20260905003041 | 86 | 0.0 | 0.0 | 0.00 | 0.00 | 0.00 | 82 | 1010.4 | |
| 20260905001541 | 87 | 0.0 | 0.0 | 0.00 | 0.00 | 0.00 | 80 | 1010.5 | |
| 20260905000042 | 88 | 0.0 | 2.0 | 0.00 | 0.00 | 0.00 | 80 | 1010.5 | |
| 20260904234547 | 89 | 0.0 | 3.0 | 0.00 | 0.00 | 0.00 | 79 | 1010.4 | |
| 20260904233038 | 90 | 0.0 | 4.0 | 0.00 | 0.00 | 0.00 | 76 | 1010.5 | |
| 20260904231537 | 91 | 0.0 | 5.0 | 0.00 | 0.00 | 0.00 | 76 | 1010.4 | |
| 20260904230040 | 93 | 0.0 | 5.0 | 0.00 | 0.00 | 0.00 | 73 | 1010.4 | |
| 20260904224541 | 93 | 0.0 | 0.0 | 0.00 | 0.00 | 0.00 | 72 | 1010.4 | |
| 20260904223035 | 93 | 0.0 | 2.0 | 0.00 | 0.00 | 0.00 | 72 | 1010.3 | |
| 20260904221536 | 93 | 0.0 | 6.0 | 0.00 | 0.00 | 0.00 | 71 | 1010.2 | |
| 20260904220033 | 92 | 0.0 | 6.0 | 0.00 | 0.00 | 0.00 | 72 | 1010.1 | |
| 20260904214530 | 92 | 0.0 | 7.0 | 0.00 | 0.00 | 0.00 | 72 | 1010.2 | |
| 20260904213032 | 92 | 0.0 | 10.0 | 0.00 | 0.00 | 0.00 | 71 | 1010.4 | |
| 20260904211528 | 92 | 0.0 | 9.0 | 0.00 | 0.00 | 0.00 | 71 | 1010.4 | |
| 20260904210028 | 92 | 0.0 | 8.0 | 0.00 | 0.00 | 0.00 | 71 | 1010.5 | |
| 20260904204524 | 92 | 0.0 | 9.0 | 0.00 | 0.00 | 0.00 | 70 | 1010.8 | |
| 20260904203032 | 92 | 0.0 | 11.0 | 0.00 | 0.00 | 0.00 | 71 | 1010.9 | |
| 20260904201522 | 91 | 0.0 | 8.0 | 0.00 | 0.00 | 0.00 | 74 | 1011.2 | |
| 20260904200021 | 90 | 0.0 | 8.0 | 0.00 | 0.00 | 0.00 | 74 | 1011.4 | |
| 20260904194521 | 90 | 0.0 | 9.0 | 0.00 | 0.00 | 0.00 | 75 | 1011.7 |